Weather History for Anchorage Merrill, AK

Change the Weather History Date:

Wednesday, April 10, 2013

  Actual Average Record
Temperature  
Mean Temperature 16 °F -  
Max Temperature 21 °F 41 °F 55 °F (1997)
Min Temperature 12 °F 25 °F 12 °F (2008)
Degree Days  
Heating Degree Days 48    
Moisture  
Dew Point 7 °F    
Average Humidity 65    
Maximum Humidity 88    
Minimum Humidity 39    
Precipitation  
Precipitation 0.00 in - - ()
Snow  
Snow 0.00 in - - ()
Snow Depth 17.00 in    
Sea Level Pressure  
Sea Level Pressure 29.78 in    
Wind  
Wind Speed 4 mph (SW)    
Max Wind Speed 10 mph    
Max Gust Speed -    
Visibility 6 miles    
Events Snow    
Averages and records for this station are not official NWS values.
T = Trace of Precipitation, MM = Missing Value Source: NWS Daily Summary

Daily Weather History Graph

Daily Weather History Graph

Search for Another Location

Airport:

Trip Planner

Search our weather history database for the weather conditions in past years. The results will help you decide how hot, cold, wet, or windy it might be!

Date:

Astronomy

Apr. 10, 2013 Rise Set
Actual Time 6:52 AM AKDT 9:09 PM AKDT
Civil Twilight 6:05 AM AKDT 9:57 PM AKDT
Nautical Twilight 5:04 AM AKDT 10:59 PM AKDT
Astronomical Twilight 3:39 AM AKDT 12:27 AM AKDT
Moon 6:44 AM AKDT (4/10) 10:17 PM AKDT (4/10)
Length of Visible Light 15h 51m
Length of Day
14h 17m
New Moon, 0% of the Moon is Illuminated
Apr 10
New Moon
Apr 18
First Quarter
Apr 25
Full
May 2
Last Quarter
May 9
New

Hourly Weather History & Observations

Time (AKDT) Temp. Windchill Dew Point Humidity Pressure Visibility Wind Dir Wind Speed Gust Speed Precip Events Conditions
12:53 AM 17.1 °F 10.0 °F -4.0 °F 39% 29.50 in 10.0 mi North 4.6 mph - N/A   Overcast
1:53 AM 16.0 °F - -5.1 °F 39% 29.54 in 10.0 mi Calm Calm - N/A   Overcast
2:53 AM 15.1 °F 9.4 °F -0.0 °F 51% 29.57 in 10.0 mi NE 3.5 mph - N/A   Overcast
3:53 AM 14.0 °F - 1.9 °F 59% 29.59 in 10.0 mi Calm Calm - N/A   Overcast
4:53 AM 12.9 °F - -5.1 °F 45% 29.62 in 10.0 mi Calm Calm - N/A   Overcast
5:06 AM 12.2 °F - -4.0 °F 48% 29.61 in 10.0 mi Calm Calm - 0.00 in Snow Light Snow
5:37 AM 12.2 °F 4.3 °F 3.2 °F 67% 29.63 in 2.5 mi WSW 4.6 mph - 0.00 in Snow Light Snow
5:53 AM 12.0 °F 5.9 °F 6.1 °F 77% 29.65 in 1.5 mi SSW 3.5 mph - 0.00 in Snow Light Snow
6:22 AM 12.2 °F - 6.8 °F 79% 29.64 in 2.5 mi Calm Calm - 0.00 in Snow Light Snow
6:53 AM 12.9 °F - 6.1 °F 74% 29.67 in 1.5 mi Calm Calm - 0.00 in Snow Light Snow
7:28 AM 14.0 °F - 5.0 °F 67% 29.67 in 7.0 mi Calm Calm - 0.00 in Snow Light Snow
7:53 AM 14.0 °F - 6.1 °F 71% 29.70 in 10.0 mi Calm Calm - 0.00 in   Overcast
8:53 AM 16.0 °F 5.3 °F 7.0 °F 68% 29.72 in 4.0 mi SSW 8.1 mph - 0.00 in Snow Light Snow
9:53 AM 16.0 °F 3.6 °F 8.1 °F 71% 29.73 in 4.0 mi South 10.4 mph - 0.00 in Snow Light Snow
10:11 AM 15.8 °F 5.1 °F 8.6 °F 73% 29.73 in 1.5 mi South 8.1 mph - 0.00 in Snow Light Snow
10:34 AM 17.6 °F 7.3 °F 6.8 °F 63% 29.73 in 10.0 mi South 8.1 mph - 0.00 in   Overcast
10:53 AM 18.0 °F 8.7 °F 6.1 °F 60% 29.75 in 10.0 mi South 6.9 mph - 0.00 in   Overcast
11:53 AM 18.0 °F 8.7 °F 3.9 °F 54% 29.76 in 10.0 mi South 6.9 mph - N/A   Overcast
11:58 AM 17.6 °F 9.3 °F 3.2 °F 53% 29.75 in 10.0 mi SW 5.8 mph - N/A   Overcast
12:53 PM 19.0 °F 13.9 °F 3.9 °F 52% 29.78 in 10.0 mi SW 3.5 mph - N/A   Overcast
1:53 PM 19.9 °F 13.4 °F 5.0 °F 52% 29.80 in 10.0 mi Variable 4.6 mph - N/A   Overcast
2:53 PM 21.0 °F 16.2 °F 5.0 °F 50% 29.81 in 10.0 mi Variable 3.5 mph - N/A   Overcast
3:53 PM 21.0 °F 11.4 °F 5.0 °F 50% 29.83 in 10.0 mi WSW 8.1 mph - N/A   Overcast
4:53 PM 21.0 °F 13.4 °F 8.1 °F 57% 29.84 in 10.0 mi NNW 5.8 mph - N/A   Overcast
5:53 PM 21.0 °F 13.4 °F 9.0 °F 60% 29.85 in 10.0 mi West 5.8 mph - N/A   Mostly Cloudy
6:06 PM 21.2 °F 13.6 °F 10.4 °F 63% 29.84 in 4.0 mi WSW 5.8 mph - 0.00 in Snow Light Snow
6:07 PM 21.2 °F 12.6 °F 10.4 °F 63% 29.84 in 2.5 mi SW 6.9 mph - 0.00 in Snow Light Snow
6:09 PM 21.2 °F 14.9 °F 10.4 °F 63% 29.85 in 4.0 mi SW 4.6 mph - 0.00 in Snow Light Snow
6:53 PM 19.9 °F 13.4 °F 10.9 °F 68% 29.86 in 10.0 mi West 4.6 mph - 0.00 in   Mostly Cloudy
7:31 PM 19.4 °F 12.8 °F 10.4 °F 68% 29.86 in 4.0 mi WSW 4.6 mph - 0.00 in Snow Light Snow
7:53 PM 19.0 °F 10.0 °F 12.0 °F 74% 29.88 in 3.0 mi WSW 6.9 mph - 0.00 in Snow Light Snow
7:55 PM 19.4 °F 10.4 °F 12.2 °F 74% 29.87 in 3.0 mi WSW 6.9 mph - 0.00 in Snow Light Snow
7:56 PM 19.4 °F 10.4 °F 12.2 °F 74% 29.87 in 3.0 mi WSW 6.9 mph - 0.00 in Snow Light Snow
8:53 PM 18.0 °F 9.8 °F 7.0 °F 62% 29.90 in 9.0 mi SSW 5.8 mph - 0.00 in   Overcast
9:53 PM 17.1 °F - 7.0 °F 65% 29.92 in 10.0 mi Calm Calm - N/A   Mostly Cloudy
10:53 PM 15.1 °F - 10.0 °F 80% 29.94 in 10.0 mi Calm Calm - 0.00 in Snow Light Snow
11:17 PM 15.8 °F 10.2 °F 10.4 °F 79% 29.94 in 2.0 mi South 3.5 mph - 0.00 in Snow Light Snow
11:28 PM 15.8 °F - 10.4 °F 79% 29.94 in 3.0 mi Calm Calm - 0.00 in Snow Light Snow
11:46 PM 15.8 °F - 12.2 °F 86% 29.95 in 2.0 mi Calm Calm - 0.00 in Snow Light Snow
11:51 PM 15.8 °F - 12.2 °F 86% 29.95 in 1.5 mi Calm Calm - 0.00 in Snow Light Snow
11:53 PM 15.1 °F - 12.0 °F 88% 29.96 in 1.5 mi Calm Calm - 0.00 in Snow Light Snow